FW6537 Weather Reports


time (UTC)temp
F
wind
direction
speed
knots
gust
knots
rain 1hr
in
rain 24hr
in
rain mn
in
humidity
%
barometer
mb
20260903230137 78 176 0.0 0.0 0.00 0.23 0.00 74 1011.4
20260903224636 79 176 0.0 0.0 0.00 0.23 0.00 72 1011.4
20260903223135 80 176 0.0 0.0 0.00 0.23 0.00 70 1011.1
20260903221653 81 127 0.0 0.9 0.00 0.23 0.00 67 1011.3
20260903220127 82 100 0.0 0.9 0.00 0.23 0.00 67 1011.1
20260903214643 82 100 0.0 1.7 0.00 0.23 0.00 65 1011.4
20260903213121 82 111 0.0 1.7 0.00 0.23 0.00 64 1011.4
20260903211622 83 112 0.0 0.9 0.00 0.23 0.00 62 1011.3
20260903210134 83 124 0.9 2.6 0.00 0.23 0.00 63 1011.5
20260903204634 83 143 0.9 3.5 0.00 0.23 0.00 63 1011.6
20260903203127 82 97 0.0 3.5 0.00 0.23 0.00 62 1011.7
20260903201621 83 116 1.7 3.5 0.00 0.23 0.00 62 1011.6
20260903200134 83 100 0.9 3.5 0.00 0.23 0.00 63 1011.7
20260903194625 83 68 0.0 3.5 0.00 0.23 0.00 63 1011.7
20260903193133 83 70 0.9 4.3 0.00 0.23 0.00 62 1012.0
20260903191630 83 51 0.9 3.5 0.00 0.23 0.00 63 1012.3
20260903190123 82 72 0.9 4.3 0.00 0.23 0.00 62 1012.2
20260903184658 82 96 1.7 6.1 0.00 0.23 0.00 61 1012.2
20260903183134 82 95 0.9 7.0 0.00 0.23 0.00 64 1012.3
20260903181707 82 130 0.9 4.3 0.00 0.23 0.00 62 1012.5
20260903180132 81 86 1.7 4.3 0.00 0.23 0.00 66 1012.4
20260903174630 81 96 1.7 3.5 0.00 0.23 0.00 65 1012.5
20260903173123 81 82 0.9 7.0 0.00 0.23 0.00 71 1012.5
20260903171632 79 349 0.9 2.6 0.00 0.23 0.00 73 1012.6
20260903170134 79 109 0.0 0.9 0.00 0.23 0.00 73 1012.7
20260903164630 79 92 0.0 4.3 0.00 0.24 0.00 74 1012.7
20260903163140 78 128 0.9 3.5 0.00 0.24 0.00 77 1012.9
20260903161634 78 73 2.6 5.2 0.00 0.24 0.00 79 1012.8
20260903160127 78 116 1.7 4.3 0.00 0.24 0.00 79 1012.9
20260903154639 76 82 0.9 3.5 0.00 0.60 0.00 83 1013.0
20260903153223 77 108 0.9 4.3 0.00 0.60 0.00 83 1013.0
20260903151626 75 85 0.9 3.5 0.00 0.60 0.00 87 1013.3
20260903150140 74 79 0.9 2.6 0.00 0.60 0.00 89 1013.5
20260903144640 73 60 0.0 2.6 0.00 1.31 0.00 90 1013.3
20260903143128 72 50 0.9 2.6 0.00 1.31 0.00 91 1013.2
20260903141623 72 101 0.0 4.3 0.00 1.31 0.00 91 1013.2
20260903140139 72 97 0.9 1.7 0.00 1.31 0.00 92 1013.0
20260903134623 72 68 0.9 3.5 0.00 1.34 0.00 91 1013.0
20260903133126 72 77 0.9 7.8 0.00 1.34 0.00 90 1013.0
20260903131703 72 62 0.9 3.5 0.00 1.34 0.00 89 1013.0
20260903130138 72 94 0.9 4.3 0.00 1.34 0.00 90 1013.0
20260903124635 72 97 0.0 2.6 0.00 1.34 0.00 90 1013.2
20260903123126 71 54 0.0 1.7 0.00 1.34 0.00 91 1013.0
20260903121636 70 65 0.0 0.9 0.00 1.34 0.00 92 1012.8
20260903120130 70 81 0.0 0.0 0.00 1.34 0.00 93 1012.8
20260903114647 70 59 0.0 0.0 0.00 1.34 0.00 93 1012.7
20260903113144 70 58 0.0 1.7 0.00 1.34 0.00 93 1012.5
20260903111631 69 66 0.0 0.9 0.00 1.34 0.00 94 1012.4
20260903110126 69 63 0.0 0.0 0.00 1.34 0.00 95 1012.4
20260903104645 69 75 0.0 0.0 0.00 1.34 0.00 95 1012.3
20260903103139 69 75 0.0 0.0 0.00 1.34 0.00 95 1012.2
20260903101635 69 75 0.0 0.0 0.00 1.34 0.00 96 1012.0
20260903100131 69 56 0.0 0.0 0.00 1.34 0.00 96 1012.1
20260903094627 68 78 0.0 0.9 0.00 1.34 0.00 97 1012.2
20260903093123 68 81 0.0 0.0 0.00 1.34 0.00 97 1012.1
20260903091700 68 80 0.0 0.9 0.00 1.34 0.00 97 1012.3
20260903090135 68 81 0.0 0.9 0.00 1.34 0.00 97 1012.2
20260903084637 68 81 0.0 3.5 0.00 1.34 0.00 98 1012.1
20260903083134 68 110 0.0 0.0 0.00 1.34 0.00 98 1012.2
20260903081632 68 110 0.0 0.0 0.00 1.34 0.00 97 1012.2
20260903080129 68 83 0.0 0.0 0.00 1.34 0.00 97 1012.3
20260903074627 68 33 0.0 2.6 0.00 1.34 0.00 98 1012.1
20260903073123 68 65 0.0 0.9 0.00 1.34 0.00 98 1012.5
20260903071640 67 69 0.0 0.9 0.00 1.34 0.00 98 1012.5
20260903070123 67 115 0.0 0.0 0.00 1.34 0.00 98 1012.7
20260903064635 67 115 0.0 0.0 0.00 1.34 0.00 98 1012.6
20260903063129 67 115 0.0 0.0 0.00 1.34 0.00 98 1012.3
20260903061624 67 115 0.0 0.0 0.00 1.34 0.00 98 1012.4
20260903060121 67 115 0.0 0.0 0.00 1.34 0.00 97 1012.4
20260903054659 67 116 0.0 0.0 0.00 1.34 0.00 97 1012.6
20260903053158 67 116 0.0 0.0 0.00 1.34 0.00 97 1012.3
20260903051636 67 116 0.0 0.0 0.00 1.34 0.00 97 1012.5
20260903050140 67 116 0.0 1.7 0.00 1.34 0.00 97 1012.4
20260903044637 67 113 0.0 0.0 0.00 1.34 0.00 97 1012.1
20260903043124 67 93 0.0 0.0 0.00 1.34 0.00 97 1012.1
20260903041643 67 355 0.0 0.0 0.00 1.34 0.00 97 1012.4
20260903040131 67 355 0.0 0.9 0.00 1.34 0.00 96 1012.9
20260903034621 67 34 0.9 2.6 0.00 1.34 1.34 96 1013.0
20260903033142 67 68 0.9 3.5 0.00 1.34 1.34 96 1013.0
20260903031635 67 57 0.9 8.7 0.01 1.34 1.34 96 1011.4
20260903030132 67 311 2.6 5.2 0.03 1.34 1.34 96 1011.0
20260903024629 68 46 1.7 5.2 0.05 1.34 1.34 95 1011.6
20260903023127 69 32 1.7 6.1 0.07 1.34 1.34 95 1012.2
20260903021624 70 58 2.6 5.2 0.09 1.33 1.33 95 1012.6
20260903020158 71 17 1.7 3.5 0.20 1.31 1.31 95 1012.1
20260903014633 71 59 1.7 4.3 0.18 1.29 1.29 95 1013.3
20260903013130 72 354 1.7 5.2 0.16 1.27 1.27 94 1012.6
20260903011629 72 349 0.9 3.5 0.13 1.24 1.24 93 1013.5
20260903010131 73 93 0.0 0.9 0.00 1.11 1.11 90 1014.4
20260903004626 74 69 0.0 0.9 0.00 1.11 1.11 89 1013.7
20260903003139 74 56 0.9 4.3 0.00 1.11 1.11 88 1013.0
20260903001628 74 79 0.0 7.0 0.00 1.11 1.11 88 1012.7
20260903000124 74 59 0.0 2.6 0.00 1.11 1.11 88 1012.3
20260902234622 74 75 0.9 7.8 0.00 1.11 1.11 88 1012.3
20260902233137 75 20 0.0 8.7 0.00 1.11 1.11 87 1012.4
20260902231622 75 20 1.7 7.8 0.00 1.11 1.11 87 1012.5